AIC1173 VCBI-VOBL

Flight info

Callsign AIC1173
Flight time 1h 13m
Altitude 34000
Route ATETA T4 TTR W42 ADKAL
Aircraft B738/M-SDE2E3FGHIRWXY/LB1

Departure

Time 2026-04-25 12:47
Airport Bandaranaike International Colombo Airport (VCBI)

Arrival

Time 2026-04-25 14:00
Airport Kempegowda International Airport Bengaluru (VOBL)
Time Latitude Longitude Altitude Speed Heading
2026-04-25 12:13 7.17617 79.88419 46 ft 0 kts 37°
2026-04-25 12:36 7.17613 79.88416 46 ft 2 kts 37°
2026-04-25 12:36 7.17601 79.88407 46 ft 2 kts 37°
2026-04-25 12:37 7.17589 79.88398 46 ft 2 kts 37°
2026-04-25 12:37 7.17577 79.88389 46 ft 1 kts 37°
2026-04-25 12:37 7.17569 79.88383 45 ft 2 kts 29°
2026-04-25 12:37 7.17555 79.88380 45 ft 2 kts 356°
2026-04-25 12:38 7.17540 79.88384 45 ft 2 kts 329°
2026-04-25 12:38 7.17532 79.88390 46 ft 0 kts 309°
2026-04-25 12:38 7.17528 79.88397 46 ft 0 kts 306°
2026-04-25 12:40 7.17533 79.88389 45 ft 3 kts 308°
2026-04-25 12:40 7.17557 79.88357 45 ft 7 kts 307°
2026-04-25 12:40 7.17599 79.88302 44 ft 11 kts 307°
2026-04-25 12:41 7.17637 79.88262 43 ft 6 kts 335°
2026-04-25 12:41 7.17678 79.88270 43 ft 5 kts 30°
2026-04-25 12:41 7.17718 79.88300 44 ft 8 kts 38°
2026-04-25 12:41 7.17773 79.88341 44 ft 11 kts 38°
2026-04-25 12:42 7.17844 79.88397 45 ft 14 kts 38°
2026-04-25 12:42 7.17872 79.88419 45 ft 15 kts 37°
2026-04-25 12:42 7.18048 79.88556 45 ft 21 kts 37°
2026-04-25 12:42 7.18161 79.88642 47 ft 19 kts 40°
2026-04-25 12:43 7.18267 79.88724 47 ft 18 kts 39°
2026-04-25 12:43 7.18368 79.88804 47 ft 18 kts 38°
2026-04-25 12:43 7.18561 79.88953 46 ft 16 kts 36°
2026-04-25 12:44 7.18655 79.89027 45 ft 17 kts 38°
2026-04-25 12:44 7.18752 79.89101 44 ft 17 kts 38°
2026-04-25 12:44 7.18948 79.89253 41 ft 17 kts 38°
2026-04-25 12:45 7.19042 79.89329 41 ft 17 kts 40°
2026-04-25 12:45 7.19139 79.89403 39 ft 17 kts 36°
2026-04-25 12:45 7.19274 79.89342 41 ft 9 kts 308°
2026-04-25 12:46 7.19287 79.89294 42 ft 6 kts 233°
2026-04-25 12:46 7.19257 79.89265 43 ft 5 kts 218°
2026-04-25 12:46 7.19199 79.89220 44 ft 28 kts 218°
2026-04-25 12:46 7.18826 79.88931 45 ft 101 kts 218°
2026-04-25 12:47 7.18098 79.88365 45 ft 159 kts 219°
2026-04-25 12:47 7.17118 79.87601 264 ft 187 kts 218°
2026-04-25 12:47 7.16102 79.86859 1154 ft 177 kts 216°
2026-04-25 12:47 7.15100 79.86131 1759 ft 184 kts 217°
2026-04-25 12:48 7.14310 79.85046 1841 ft 214 kts 256°
2026-04-25 12:48 7.14510 79.83473 1933 ft 244 kts 296°
2026-04-25 12:48 7.15733 79.82189 2188 ft 264 kts 326°
2026-04-25 12:48 7.17426 79.81394 2759 ft 267 kts 342°
2026-04-25 12:49 7.19188 79.80988 3638 ft 256 kts 354°
2026-04-25 12:49 7.20926 79.80983 4408 ft 250 kts
2026-04-25 12:49 7.22619 79.81421 4873 ft 248 kts 23°
2026-04-25 12:49 7.24136 79.82279 5305 ft 254 kts 37°
2026-04-25 12:50 7.25509 79.83359 6092 ft 251 kts 40°
2026-04-25 12:50 7.26909 79.84501 6516 ft 265 kts 40°
2026-04-25 12:50 7.28364 79.85658 7190 ft 268 kts 39°
2026-04-25 12:50 7.29847 79.86809 7836 ft 272 kts 38°
2026-04-25 12:51 7.31365 79.87977 8503 ft 276 kts 38°
2026-04-25 12:51 7.32895 79.89151 9170 ft 280 kts 38°
2026-04-25 12:51 7.34478 79.90348 9834 ft 284 kts 35°
2026-04-25 12:51 7.36221 79.91296 10435 ft 292 kts 19°
2026-04-25 12:52 7.38289 79.91643 10807 ft 309 kts
2026-04-25 12:52 7.40495 79.91659 11190 ft 324 kts
2026-04-25 12:52 7.42824 79.91623 11536 ft 339 kts
2026-04-25 12:52 7.45247 79.91616 11922 ft 352 kts
2026-04-25 12:53 7.47723 79.91650 12534 ft 356 kts
2026-04-25 12:53 7.50228 79.91708 13174 ft 361 kts
2026-04-25 12:53 7.52740 79.91778 13865 ft 363 kts
2026-04-25 12:53 7.55302 79.91851 14519 ft 367 kts
2026-04-25 12:54 7.57881 79.91924 15184 ft 371 kts
2026-04-25 12:54 7.60491 79.91996 15820 ft 375 kts
2026-04-25 12:54 7.63093 79.92066 16462 ft 379 kts
2026-04-25 12:54 7.65767 79.92138 17095 ft 382 kts
2026-04-25 12:55 7.68449 79.92210 17715 ft 385 kts
2026-04-25 12:55 7.70229 79.92258 18103 ft 388 kts
2026-04-25 12:55 7.73858 79.92357 18887 ft 392 kts
2026-04-25 12:55 7.76620 79.92432 19445 ft 396 kts
2026-04-25 12:56 7.79420 79.92508 19988 ft 400 kts
2026-04-25 12:56 7.82205 79.92583 20554 ft 403 kts
2026-04-25 12:56 7.85055 79.92593 21076 ft 407 kts 360°
2026-04-25 12:56 7.87901 79.92384 21597 ft 412 kts 355°
2026-04-25 12:57 7.90757 79.91969 22116 ft 415 kts 352°
2026-04-25 12:57 7.93413 79.91486 22578 ft 419 kts 351°
2026-04-25 12:57 7.96286 79.90918 23031 ft 423 kts 350°
2026-04-25 12:57 7.99184 79.90327 23496 ft 427 kts 349°
2026-04-25 12:58 8.02126 79.89728 23932 ft 432 kts 349°
2026-04-25 12:58 8.05083 79.89132 24409 ft 435 kts 349°
2026-04-25 12:58 8.08095 79.88532 24841 ft 439 kts 349°
2026-04-25 12:58 8.11130 79.87934 25280 ft 443 kts 349°
2026-04-25 12:59 8.14164 79.87341 25696 ft 447 kts 349°
2026-04-25 12:59 8.17247 79.86741 26134 ft 450 kts 349°
2026-04-25 12:59 8.20358 79.86140 26558 ft 453 kts 349°
2026-04-25 12:59 8.23476 79.85543 26967 ft 456 kts 349°
2026-04-25 13:00 8.26608 79.84946 27363 ft 460 kts 349°
2026-04-25 13:00 8.27677 79.84744 27495 ft 461 kts 349°
2026-04-25 13:00 8.32968 79.83740 28358 ft 461 kts 349°
2026-04-25 13:00 8.36093 79.83146 28944 ft 458 kts 349°
2026-04-25 13:01 8.39248 79.82547 29492 ft 457 kts 349°
2026-04-25 13:01 8.42378 79.81952 29969 ft 457 kts 349°
2026-04-25 13:01 8.45507 79.81357 30568 ft 454 kts 349°
2026-04-25 13:01 8.48581 79.80772 31198 ft 449 kts 349°
2026-04-25 13:02 8.51633 79.80191 31837 ft 443 kts 349°
2026-04-25 13:02 8.54715 79.79605 32168 ft 446 kts 348°
2026-04-25 13:02 8.57763 79.79024 32379 ft 451 kts 348°
2026-04-25 13:02 8.60886 79.78429 32557 ft 456 kts 348°
2026-04-25 13:03 8.64029 79.77830 33106 ft 454 kts 348°
2026-04-25 13:03 8.66884 79.77286 33666 ft 449 kts 348°
2026-04-25 13:03 8.69961 79.76699 33826 ft 451 kts 348°
2026-04-25 13:03 8.73034 79.76112 33822 ft 448 kts 348°
2026-04-25 13:04 8.79153 79.74945 33824 ft 445 kts 348°
2026-04-25 13:04 8.85315 79.73766 33823 ft 446 kts 348°
2026-04-25 13:05 8.91434 79.72598 33816 ft 446 kts 348°
2026-04-25 13:05 8.97534 79.71433 33806 ft 445 kts 348°
2026-04-25 13:06 9.03665 79.70262 33802 ft 446 kts 348°
2026-04-25 13:06 9.09769 79.69096 33803 ft 447 kts 348°
2026-04-25 13:07 9.15892 79.67926 33807 ft 447 kts 348°
2026-04-25 13:07 9.22073 79.66743 33807 ft 448 kts 348°
2026-04-25 13:08 9.28198 79.65539 33812 ft 447 kts 346°
2026-04-25 13:08 9.34062 79.63451 33818 ft 445 kts 332°
2026-04-25 13:09 9.39460 79.60323 33821 ft 444 kts 326°
2026-04-25 13:09 9.44645 79.56969 33820 ft 445 kts 326°
2026-04-25 13:10 9.49881 79.53554 33819 ft 444 kts 326°
2026-04-25 13:10 9.55086 79.50200 33817 ft 444 kts 326°
2026-04-25 13:11 9.60350 79.46838 33818 ft 445 kts 326°
2026-04-25 13:11 9.65601 79.43500 33824 ft 445 kts 326°
2026-04-25 13:12 9.70878 79.40149 33824 ft 445 kts 326°
2026-04-25 13:12 9.75261 79.37366 33821 ft 446 kts 326°
2026-04-25 13:13 9.81406 79.33463 33823 ft 446 kts 326°
2026-04-25 13:13 9.86701 79.30098 33825 ft 446 kts 326°
2026-04-25 13:14 9.91958 79.26756 33822 ft 446 kts 326°
2026-04-25 13:14 9.97248 79.23392 33821 ft 445 kts 326°
2026-04-25 13:15 10.02515 79.20040 33824 ft 446 kts 326°
2026-04-25 13:15 10.07792 79.16681 33824 ft 445 kts 326°
2026-04-25 13:16 10.13037 79.13341 33826 ft 445 kts 326°
2026-04-25 13:16 10.18320 79.09975 33827 ft 446 kts 326°
2026-04-25 13:17 10.23582 79.06622 33827 ft 446 kts 326°
2026-04-25 13:17 10.28862 79.03256 33831 ft 446 kts 326°
2026-04-25 13:18 10.34100 78.99915 33833 ft 445 kts 326°
2026-04-25 13:18 10.39368 78.96555 33832 ft 445 kts 326°
2026-04-25 13:19 10.44625 78.93199 33826 ft 445 kts 326°
2026-04-25 13:19 10.48136 78.90958 33824 ft 445 kts 326°
2026-04-25 13:20 10.55152 78.86477 33823 ft 445 kts 326°
2026-04-25 13:20 10.60424 78.83109 33821 ft 445 kts 326°
2026-04-25 13:21 10.65684 78.79745 33814 ft 446 kts 326°
2026-04-25 13:21 10.68322 78.78056 33542 ft 447 kts 326°
2026-04-25 13:21 10.70947 78.76378 33253 ft 444 kts 326°
2026-04-25 13:22 10.73530 78.74727 32969 ft 440 kts 326°
2026-04-25 13:22 10.76168 78.73107 32680 ft 439 kts 329°
2026-04-25 13:22 10.78883 78.71689 32422 ft 440 kts 333°
2026-04-25 13:23 10.84557 78.69231 31915 ft 437 kts 337°
2026-04-25 13:23 10.87375 78.68098 31663 ft 434 kts 337°
2026-04-25 13:23 10.90187 78.66979 31411 ft 431 kts 337°
2026-04-25 13:23 10.92999 78.65857 31158 ft 430 kts 337°
2026-04-25 13:24 10.95800 78.64733 30908 ft 429 kts 337°
2026-04-25 13:24 10.98570 78.63615 30656 ft 428 kts 336°
2026-04-25 13:24 11.01327 78.62496 30406 ft 425 kts 336°
2026-04-25 13:24 11.04100 78.61365 30152 ft 423 kts 336°
2026-04-25 13:25 11.06830 78.60248 29908 ft 422 kts 336°
2026-04-25 13:25 11.09553 78.59131 29660 ft 419 kts 336°
2026-04-25 13:25 11.12270 78.58015 29409 ft 416 kts 336°
2026-04-25 13:25 11.14960 78.56910 29160 ft 414 kts 336°
2026-04-25 13:26 11.17615 78.55817 28915 ft 413 kts 336°
2026-04-25 13:26 11.20288 78.54717 28666 ft 411 kts 336°
2026-04-25 13:26 11.22955 78.53618 28418 ft 410 kts 336°
2026-04-25 13:26 11.25604 78.52527 28173 ft 408 kts 336°
2026-04-25 13:27 11.28245 78.51437 27927 ft 407 kts 336°
2026-04-25 13:27 11.30874 78.50352 27680 ft 405 kts 336°
2026-04-25 13:27 11.33505 78.49266 27431 ft 403 kts 336°
2026-04-25 13:27 11.36108 78.48191 27184 ft 401 kts 337°
2026-04-25 13:28 11.38673 78.47132 26940 ft 400 kts 337°
2026-04-25 13:28 11.39538 78.46774 26859 ft 399 kts 337°
2026-04-25 13:28 11.43852 78.44993 26447 ft 397 kts 337°
2026-04-25 13:28 11.46399 78.43941 26202 ft 396 kts 337°
2026-04-25 13:29 11.48973 78.42878 25954 ft 394 kts 337°
2026-04-25 13:29 11.51523 78.41825 25707 ft 392 kts 338°
2026-04-25 13:29 11.53958 78.40819 25470 ft 390 kts 338°
2026-04-25 13:30 11.58774 78.38829 25000 ft 388 kts 338°
2026-04-25 13:30 11.61280 78.37793 24755 ft 387 kts 338°
2026-04-25 13:30 11.63799 78.36752 24507 ft 385 kts 338°
2026-04-25 13:31 11.68751 78.34705 24018 ft 382 kts 338°
2026-04-25 13:31 11.71208 78.33688 23775 ft 381 kts 338°
2026-04-25 13:31 11.73704 78.32656 23522 ft 379 kts 338°
2026-04-25 13:31 11.76121 78.31655 23275 ft 377 kts 338°
2026-04-25 13:32 11.78582 78.30637 23023 ft 376 kts 338°
2026-04-25 13:32 11.80990 78.29640 22775 ft 375 kts 338°
2026-04-25 13:32 11.83424 78.28632 22524 ft 373 kts 338°
2026-04-25 13:32 11.85841 78.27634 22273 ft 373 kts 339°
2026-04-25 13:33 11.88244 78.26657 22030 ft 372 kts 339°
2026-04-25 13:33 11.90660 78.25688 21784 ft 369 kts 339°
2026-04-25 13:33 11.93070 78.24725 21540 ft 368 kts 339°
2026-04-25 13:33 11.94620 78.24106 21383 ft 367 kts 339°
2026-04-25 13:34 11.97834 78.22821 21052 ft 365 kts 339°
2026-04-25 13:34 12.00206 78.21870 20807 ft 364 kts 339°
2026-04-25 13:34 12.02551 78.20930 20563 ft 362 kts 339°
2026-04-25 13:34 12.04897 78.19988 20319 ft 360 kts 339°
2026-04-25 13:35 12.07230 78.19050 20075 ft 358 kts 339°
2026-04-25 13:35 12.09572 78.18108 19834 ft 357 kts 339°
2026-04-25 13:35 12.11890 78.17176 19590 ft 355 kts 339°
2026-04-25 13:35 12.14196 78.16248 19353 ft 353 kts 339°
2026-04-25 13:36 12.16342 78.15385 19120 ft 351 kts 339°
2026-04-25 13:36 12.18216 78.14630 18921 ft 350 kts 339°
2026-04-25 13:36 12.20022 78.13902 18730 ft 349 kts 339°
2026-04-25 13:36 12.22128 78.13053 18500 ft 347 kts 339°
2026-04-25 13:37 12.23199 78.12621 18381 ft 346 kts 339°
2026-04-25 13:37 12.25388 78.11737 18143 ft 345 kts 339°
2026-04-25 13:37 12.27073 78.11058 17971 ft 344 kts 339°
2026-04-25 13:37 12.29318 78.10153 17727 ft 342 kts 339°
2026-04-25 13:38 12.31366 78.09328 17506 ft 340 kts 339°
2026-04-25 13:38 12.33540 78.08453 17275 ft 338 kts 339°
2026-04-25 13:38 12.35719 78.07575 17049 ft 338 kts 339°
2026-04-25 13:38 12.37922 78.06688 16816 ft 336 kts 339°
2026-04-25 13:39 12.40104 78.05807 16576 ft 333 kts 339°
2026-04-25 13:39 12.42244 78.04943 16349 ft 331 kts 340°
2026-04-25 13:39 12.44395 78.04076 16124 ft 329 kts 340°
2026-04-25 13:39 12.46529 78.03215 15894 ft 327 kts 340°
2026-04-25 13:40 12.48660 78.02356 15666 ft 325 kts 340°
2026-04-25 13:40 12.50742 78.01517 15433 ft 322 kts 340°
2026-04-25 13:40 12.52837 78.00672 15200 ft 320 kts 340°
2026-04-25 13:40 12.54854 77.99857 14975 ft 318 kts 340°
2026-04-25 13:41 12.56604 77.99151 14779 ft 317 kts 340°
2026-04-25 13:41 12.58585 77.98349 14556 ft 315 kts 340°
2026-04-25 13:41 12.60636 77.97520 14324 ft 313 kts 340°
2026-04-25 13:41 12.62651 77.96705 14092 ft 311 kts 340°
2026-04-25 13:42 12.64668 77.95891 13859 ft 310 kts 340°
2026-04-25 13:42 12.66602 77.95110 13636 ft 308 kts 341°
2026-04-25 13:42 12.68603 77.94302 13403 ft 307 kts 340°
2026-04-25 13:42 12.70447 77.93557 13187 ft 305 kts 341°
2026-04-25 13:43 12.72258 77.92825 12973 ft 304 kts 341°
2026-04-25 13:43 12.74222 77.92030 12736 ft 303 kts 341°
2026-04-25 13:43 12.76087 77.91277 12510 ft 302 kts 341°
2026-04-25 13:43 12.78061 77.90479 12272 ft 301 kts 341°
2026-04-25 13:44 12.79998 77.89696 12055 ft 299 kts 341°
2026-04-25 13:44 12.81935 77.88911 12029 ft 296 kts 341°
2026-04-25 13:44 12.83896 77.88119 12022 ft 300 kts 341°
2026-04-25 13:44 12.85829 77.87336 12021 ft 299 kts 340°
2026-04-25 13:45 12.87765 77.86552 12024 ft 299 kts 340°
2026-04-25 13:45 12.89723 77.85762 12025 ft 300 kts 340°
2026-04-25 13:45 12.91669 77.84975 12024 ft 300 kts 341°
2026-04-25 13:45 12.93623 77.84186 12020 ft 300 kts 340°
2026-04-25 13:46 12.95598 77.83388 12020 ft 301 kts 340°
2026-04-25 13:46 12.97550 77.82599 12023 ft 301 kts 341°
2026-04-25 13:46 12.99486 77.81815 11933 ft 291 kts 340°
2026-04-25 13:46 13.01125 77.81149 11723 ft 286 kts 340°
2026-04-25 13:47 13.02976 77.80399 11481 ft 279 kts 340°
2026-04-25 13:47 13.04757 77.79677 11244 ft 273 kts 341°
2026-04-25 13:47 13.06527 77.78960 11006 ft 267 kts 341°
2026-04-25 13:47 13.08246 77.78232 10768 ft 263 kts 336°
2026-04-25 13:48 13.09749 77.77200 10524 ft 261 kts 315°
2026-04-25 13:48 13.10608 77.75587 10293 ft 261 kts 283°
2026-04-25 13:48 13.10728 77.73732 10080 ft 261 kts 270°
2026-04-25 13:48 13.10672 77.71847 9840 ft 261 kts 270°
2026-04-25 13:49 13.10627 77.69989 9606 ft 261 kts 271°
2026-04-25 13:49 13.10611 77.68104 9369 ft 261 kts 271°
2026-04-25 13:49 13.10613 77.66242 9140 ft 260 kts 272°
2026-04-25 13:49 13.10619 77.64406 8908 ft 259 kts 271°
2026-04-25 13:50 13.10625 77.62541 8678 ft 260 kts 271°
2026-04-25 13:50 13.10631 77.60696 8447 ft 259 kts 271°
2026-04-25 13:50 13.10639 77.58836 8218 ft 260 kts 271°
2026-04-25 13:50 13.10648 77.56966 7983 ft 258 kts 271°
2026-04-25 13:51 13.10658 77.55133 7757 ft 259 kts 271°
2026-04-25 13:51 13.10669 77.53268 7527 ft 260 kts 271°
2026-04-25 13:51 13.10680 77.51406 7297 ft 260 kts 271°
2026-04-25 13:51 13.10690 77.49584 7078 ft 255 kts 271°
2026-04-25 13:52 13.10698 77.47841 6990 ft 243 kts 271°
2026-04-25 13:52 13.10706 77.46159 6991 ft 229 kts 271°
2026-04-25 13:52 13.10733 77.44514 6997 ft 231 kts 275°
2026-04-25 13:52 13.11048 77.42930 6998 ft 228 kts 299°
2026-04-25 13:53 13.12078 77.41806 7007 ft 209 kts 340°
2026-04-25 13:53 13.13449 77.41574 7014 ft 197 kts 12°
2026-04-25 13:53 13.14780 77.41936 7007 ft 194 kts 23°
2026-04-25 13:53 13.16067 77.42351 7001 ft 193 kts 20°
2026-04-25 13:54 13.17363 77.42728 7007 ft 192 kts 20°
2026-04-25 13:54 13.18620 77.43101 7003 ft 183 kts 22°
2026-04-25 13:54 13.19818 77.43529 7005 ft 179 kts 32°
2026-04-25 13:54 13.20694 77.44402 7005 ft 173 kts 69°
2026-04-25 13:55 13.20873 77.45601 6997 ft 173 kts 90°
2026-04-25 13:55 13.20864 77.46822 6971 ft 164 kts 89°
2026-04-25 13:55 13.20880 77.47976 6753 ft 160 kts 89°
2026-04-25 13:55 13.20877 77.49075 6560 ft 153 kts 90°
2026-04-25 13:56 13.20868 77.50167 6341 ft 151 kts 90°
2026-04-25 13:56 13.20862 77.51252 6145 ft 151 kts 90°
2026-04-25 13:56 13.20855 77.52327 5938 ft 150 kts 90°
2026-04-25 13:56 13.20846 77.53401 5760 ft 152 kts 90°
2026-04-25 13:57 13.20837 77.54492 5555 ft 153 kts 90°
2026-04-25 13:57 13.20835 77.54864 5489 ft 153 kts 91°
2026-04-25 13:57 13.20819 77.56680 5160 ft 151 kts 91°
2026-04-25 13:57 13.20808 77.57755 4976 ft 151 kts 91°
2026-04-25 13:58 13.20802 77.58836 4773 ft 152 kts 91°
2026-04-25 13:58 13.20795 77.59928 4584 ft 152 kts 91°
2026-04-25 13:58 13.20783 77.61018 4388 ft 152 kts 92°
2026-04-25 13:58 13.20773 77.62107 4194 ft 153 kts 91°
2026-04-25 13:59 13.20764 77.63203 4000 ft 155 kts 91°
2026-04-25 13:59 13.20755 77.64313 3798 ft 154 kts 92°
2026-04-25 13:59 13.20744 77.65404 3610 ft 155 kts 92°
2026-04-25 13:59 13.20733 77.66506 3389 ft 155 kts 92°
2026-04-25 14:00 13.20720 77.67251 3255 ft 156 kts 92°
2026-04-25 14:00 13.20716 77.68729 3020 ft 151 kts 92°
2026-04-25 14:00 13.20707 77.69624 3002 ft 97 kts 90°
2026-04-25 14:00 13.20701 77.70102 3002 ft 44 kts 90°
2026-04-25 14:01 13.20693 77.70373 3002 ft 27 kts 99°
2026-04-25 14:01 13.20652 77.70514 3002 ft 17 kts 117°
2026-04-25 14:01 13.20594 77.70620 3002 ft 15 kts 120°
2026-04-25 14:01 13.20543 77.70709 3002 ft 14 kts 120°
2026-04-25 14:02 13.20523 77.70805 3002 ft 13 kts 91°
2026-04-25 14:02 13.20521 77.70903 3002 ft 13 kts 90°
2026-04-25 14:02 13.20521 77.71003 3002 ft 13 kts 91°
2026-04-25 14:02 13.20520 77.71036 3002 ft 14 kts 91°
2026-04-25 14:03 13.20519 77.71202 3002 ft 13 kts 93°
2026-04-25 14:03 13.20484 77.71272 3002 ft 11 kts 169°
2026-04-25 14:03 13.20406 77.71275 3002 ft 11 kts 181°
2026-04-25 14:03 13.20325 77.71275 3002 ft 11 kts 180°
2026-04-25 14:04 13.20257 77.71296 3002 ft 9 kts 119°
2026-04-25 14:04 13.20251 77.71366 3002 ft 10 kts 91°
2026-04-25 14:04 13.20242 77.71438 3002 ft 10 kts 123°
2026-04-25 14:04 13.20192 77.71488 3002 ft 10 kts 133°
2026-04-25 14:05 13.20176 77.71557 3002 ft 10 kts 90°
2026-04-25 14:05 13.20174 77.71629 3002 ft 10 kts 90°
2026-04-25 14:05 13.20140 77.71660 3002 ft 7 kts 178°
2026-04-25 14:05 13.20087 77.71660 3002 ft 7 kts 180°
2026-04-25 14:06 13.20065 77.71660 3002 ft 2 kts 181°
2026-04-25 14:06 13.20064 77.71660 3002 ft 0 kts 181°